STARLINK-37300, 68682

Orbit data source: Space-Track

STARLINK-37300, 68682 is a payload satellite owned by SpaceX/Seattle (US) in SSO that was launched on Sat, 11 Apr 2026 UTC via an FALCON 9 launch vehicle from the Air Force Western Test Range (AFWTR). Payload-class satellites include a variety of spacecraft equipped with specific instruments for various scientific and technological missions. These include communications satellites like Starlink; space stations such as the ISS; scientific satellites like the Hubble; Earth observation satellites from companies like Planet Labs, Umbra, and HawkEye 360; GPS; miniature CubeSats for education and research; and military/defense satellites.

Loading next visibility...
Identifier
68682, 2026-077W
Orbit
SSO
Country
Flag of USUS
Related business
Manufacturer
SpaceX/Seattle
Mission
Operational spacecraft
Bus & Motor
STARLINK V2MO, Unknown motor
Mass
575 kg wet, ~530 kg dry
Launch date (UTC)
2026-04-11 (2 months ago)
Launch vehicle
FALCON 9
Launch site
Air Force Western Test Range (AFWTR)
Object type
Payload
Rocket body
Debris
Shape & HBR
Unknown shape, 14.5 m
Radar Cross Section
Large (>1 m²)

Expand to show TLE details & history
Last TLE update: 11 hours ago

TLE from 11 hours ago
0 STARLINK-37300
1 68682U 26077W   26171.39683919  .00006056  00000-0  18968-3 0  9999
2 68682  97.2856  42.6824 0001574  96.0761 264.0661 15.33458391 10908
Epoch: 2026-06-20T09:31Z
TLE epoch observation values (Epoch: 2026-06-20T09:31:26.906Z)
Latitude
-0.00007°
Longitude
-8.79175°
Altitude
468.727 km
Speed
7.632 km/s
True Right ascension
02h 50m 43s
True Declination
0° 00' 00"
Sunlit
Object was in daylight at epoch
Visualization orbit readout
Latitude
Unknown
Longitude
Unknown
Altitude
Unknown
Speed
Unknown
Apparent Right ascension
Unknown
Apparent Declination
Unknown
Sunlit
N/A
Visualization observer readout
Local Sidereal Time
07:11:52
Azimuth
Unknown
Elevation
Unknown
Doppler factor
Unknown
Orbital elements
Apogee altitude
463.523 km
Perigee altitude
461.369 km
Semi-major axis
6,840.583 km
Eccentricity
0.00016
Inclination
97.2856°
RAAN
42.6824°
Arg. of periapsis
96.0761°
True anomaly
264.04816°
Mean anomaly
264.0661°
Eccentric anomaly
264.05713°
Mean motion
3.83622 °/min
Orbital period
93.84 mins
BSTAR
0.00018968
Loading maneuver chart data...
Computing Atmospheric mass density...
Loading historical data...
Loading historical data...
Loading historical data...
Loading historical data...
Loading historical data...
Loading historical data...
Loading historical data...

Documentation

Showing up to 5 results
|